Weather History for Yuma MCAS, AZ

Change the Weather History Date:

Sunday, May 13, 2012

  Actual Average Record
Temperature  
Mean Temperature 87 °F 81 °F  
Max Temperature 105 °F 94 °F 109 °F (1937)
Min Temperature 68 °F 67 °F 46 °F (1908)
Degree Days  
Heating Degree Days 0 0  
Month to date heating degree days 0 0  
Since 1 July heating degree days 697 686  
Cooling Degree Days 22 16  
Month to date cooling degree days 213 182  
Year to date cooling degree days 603 588  
Growing Degree Days 36 (Base 50)    
Moisture  
Dew Point 36 °F    
Average Humidity 20    
Maximum Humidity 33    
Minimum Humidity 7    
Precipitation  
Precipitation 0.00 in 0.01 in 0.01 in (1998)
Month to date precipitation 0.00 0.04  
Year to date precipitation 0.09 1.28  
Sea Level Pressure  
Sea Level Pressure 29.84 in    
Wind  
Wind Speed 4 mph (WSW)    
Max Wind Speed 9 mph    
Max Gust Speed 14 mph    
Visibility 10 miles    
Events      
T = Trace of Precipitation, MM = Missing Value Source: NWS Daily Summary

Daily Weather History Graph

Daily Weather History Graph

Search for Another Location

Airport:

Trip Planner

Search our weather history database for the weather conditions in past years. The results will help you decide how hot, cold, wet, or windy it might be!

Date:

Astronomy

May. 13, 2012 Rise Set
Actual Time 5:40 AM MST 7:29 PM MST
Civil Twilight 5:13 AM MST 7:56 PM MST
Nautical Twilight 4:41 AM MST 8:28 PM MST
Astronomical Twilight 4:06 AM MST 9:03 PM MST
Moon 1:25 AM MST (5/13) 1:15 PM MST (5/13)
Length of Visible Light 14h 42m
Length of Day
13h 48m
Last Quarter, 41% of the Moon is Illuminated
May 13
Last Quarter
May 20
New
May 28
First Quarter
Jun 4
Full
Jun 11
Last Quarter

Hourly Weather History & Observations

Time (MST) Temp. Dew Point Humidity Pressure Visibility Wind Dir Wind Speed Gust Speed Precip Events Conditions
12:55 AM 75.9 °F 37.0 °F 24% 29.88 in 10.0 mi NNW 6.9 mph - N/A   Clear
1:00 AM - - N/A% - - North - - N/A   Unknown
1:55 AM 75.9 °F 41.0 °F 29% 29.87 in 10.0 mi Calm Calm - N/A   Clear
2:55 AM 73.0 °F 39.0 °F 29% 29.86 in 10.0 mi South 3.5 mph - N/A   Clear
3:55 AM 72.0 °F 39.0 °F 30% 29.86 in 10.0 mi Calm Calm - N/A   Clear
4:55 AM 69.1 °F 39.0 °F 33% 29.86 in 10.0 mi South 3.5 mph - N/A   Clear
5:55 AM 69.1 °F 37.9 °F 32% 29.87 in 10.0 mi Calm Calm - N/A   Clear
6:55 AM 73.9 °F 37.0 °F 26% 29.88 in 10.0 mi Calm Calm - N/A   Clear
7:55 AM 79.0 °F 43.0 °F 28% 29.90 in 10.0 mi Calm Calm - N/A   Clear
8:55 AM 86.0 °F 39.0 °F 19% 29.90 in 10.0 mi Calm Calm - N/A   Clear
9:55 AM 90.0 °F 39.9 °F 17% 29.90 in 10.0 mi Calm Calm - N/A   Clear
10:55 AM 93.9 °F 43.0 °F 17% 29.91 in 10.0 mi West 5.8 mph - N/A   Clear
11:55 AM 97.0 °F 34.0 °F 11% 29.89 in 10.0 mi Variable 4.6 mph - N/A   Clear
12:55 PM 100.0 °F 30.9 °F 9% 29.87 in 10.0 mi West 3.5 mph - N/A   Clear
1:55 PM 100.9 °F 25.0 °F 7% 29.84 in 10.0 mi Variable 3.5 mph - N/A   Clear
2:55 PM 102.9 °F 28.9 °F 7% 29.82 in 10.0 mi SW 5.8 mph - N/A   Clear
3:55 PM 102.9 °F 28.9 °F 7% 29.80 in 10.0 mi West 6.9 mph - N/A   Clear
4:55 PM 102.9 °F 28.9 °F 7% 29.78 in 10.0 mi Variable 3.5 mph - N/A   Clear
5:55 PM 102.9 °F 28.0 °F 7% 29.77 in 10.0 mi WSW 6.9 mph - N/A   Clear
6:55 PM 100.9 °F 28.9 °F 8% 29.77 in 10.0 mi WSW 5.8 mph - N/A   Clear
7:55 PM 95.0 °F 37.0 °F 13% 29.78 in 10.0 mi WSW 4.6 mph - N/A   Clear
8:55 PM 93.0 °F 35.1 °F 13% 29.79 in 10.0 mi WSW 8.1 mph - N/A   Clear
9:55 PM 87.1 °F 39.0 °F 18% 29.81 in 10.0 mi West 4.6 mph - N/A   Clear
10:55 PM 84.0 °F 41.0 °F 22% 29.81 in 10.0 mi WSW 3.5 mph - N/A   Clear
11:55 PM 82.0 °F 39.0 °F 22% 29.82 in 10.0 mi South 4.6 mph - N/A   Clear